Simultaneous Nadir Overpasses (SNOs) Predictions

Prediction of SNOs between FY3D and NOAA-19 Satellite Orbit:

Table of predicted SNOs for the next 14.0 days since TLE Epoch: 9/5/2020
Index Date (FY3D) Time (FY3D) Lat,Lon (FY3D) SZA (FY3D ) Date (NOAA-19) Time (NOAA-19) Lat,Lon (NOAA-19) SZA (NOAA-19 ) Distance(km) Time Diff (sec)
1 09/18/2020 08:10:01 79.14, 27.47 78.79 09/18/2020 08:08:46 79.16, 27.45 78.84 2.75 75
2 09/18/2020 09:00:45 -79.14,-165.26 101.20 09/18/2020 08:59:42 -79.15,-165.39 101.15 2.87 63
3 09/18/2020 09:51:31 79.17, 1.85 78.86 09/18/2020 09:50:47 79.14, 1.82 78.86 2.77 44
4 09/18/2020 10:42:15 -79.17, 169.13 101.12 09/18/2020 10:41:42 -79.16, 169.25 101.13 2.83 33
5 09/18/2020 11:33:00 79.17, -23.51 78.89 09/18/2020 11:32:47 79.16, -23.54 78.89 1.00 13
6 09/18/2020 12:23:44 -79.17, 143.77 101.09 09/18/2020 12:23:42 -79.18, 143.89 101.10 2.56 2
7 09/18/2020 13:14:29 79.17, -48.87 78.91 09/18/2020 13:14:47 79.18, -48.90 78.92 1.41 18
8 09/18/2020 14:05:13 -79.17, 118.41 101.07 09/18/2020 14:05:43 -79.16, 118.26 101.07 3.24 30
9 09/18/2020 14:55:58 79.16, -74.23 78.94 09/18/2020 14:56:47 79.19, -74.26 78.95 3.25 49
10 09/18/2020 15:46:42 -79.17, 93.05 101.05 09/18/2020 15:47:43 -79.18, 92.90 101.05 3.33 61
11 09/18/2020 16:37:36 79.47,-101.96 79.45 09/18/2020 16:38:40 79.42, -97.69 79.00 87.08 64
